Time,TemperatureF,DewpointF,PressureIn,WindDirection,WindDirectionDegrees,WindSpeedMPH,WindSpeedGustMPH,Humidity,HourlyPrecipIn,Conditions,Clouds,dailyrainin,SoftwareType,DateUTC
2013-04-19 00:03:00,69.0,68.0,30.01,SE,146,1.0,5.0,97,0.00,,,0.00,,2013-04-19 04:03:00,
2013-04-19 00:13:00,69.0,68.0,30.01,SE,146,1.0,5.0,97,0.00,,,0.00,,2013-04-19 04:13:00,
2013-04-19 00:23:00,69.0,68.0,30.01,SSE,168,1.0,3.0,96,0.00,,,0.00,,2013-04-19 04:23:00,
2013-04-19 00:33:00,69.0,68.0,30.01,South,172,1.0,5.0,95,0.00,,,0.00,,2013-04-19 04:33:00,
2013-04-19 00:43:00,69.0,68.0,30.01,South,172,1.0,5.0,95,0.00,,,0.00,,2013-04-19 04:43:00,
2013-04-19 00:52:00,69.0,68.0,30.00,SSE,152,2.0,3.0,95,0.00,,,0.00,,2013-04-19 04:52:00,
2013-04-19 01:03:00,69.0,68.0,30.00,SSE,148,1.0,3.0,95,0.00,,,0.00,,2013-04-19 05:03:00,
2013-04-19 01:12:00,69.0,68.0,30.00,SSE,148,1.0,3.0,95,0.00,,,0.00,,2013-04-19 05:12:00,
2013-04-19 01:22:00,69.0,68.0,30.00,SSE,153,2.0,5.0,95,0.00,,,0.00,,2013-04-19 05:22:00,
2013-04-19 01:32:00,69.0,68.0,29.99,SE,132,1.0,3.0,95,0.00,,,0.00,,2013-04-19 05:32:00,
2013-04-19 01:42:00,69.0,68.0,29.99,SE,132,1.0,3.0,95,0.00,,,0.00,,2013-04-19 05:42:00,
2013-04-19 01:52:00,69.0,68.0,29.98,SSE,160,1.0,3.0,95,0.00,,,0.00,,2013-04-19 05:52:00,
2013-04-19 02:02:00,69.0,68.0,29.98,South,169,2.0,3.0,95,0.00,,,0.00,,2013-04-19 06:02:00,
2013-04-19 02:12:00,69.0,68.0,29.98,South,169,2.0,3.0,95,0.00,,,0.00,,2013-04-19 06:12:00,
2013-04-19 02:22:00,69.0,68.0,29.97,SSE,161,1.0,5.0,96,0.00,,,0.00,,2013-04-19 06:22:00,
2013-04-19 02:32:00,69.0,68.0,29.97,South,169,1.0,6.0,96,0.00,,,0.00,,2013-04-19 06:32:00,
2013-04-19 02:42:00,69.0,68.0,29.97,South,169,1.0,6.0,96,0.00,,,0.00,,2013-04-19 06:42:00,
2013-04-19 02:53:00,69.0,68.0,29.97,SSE,159,1.0,3.0,96,0.00,,,0.00,,2013-04-19 06:53:00,
2013-04-19 03:02:00,69.0,68.0,29.96,South,182,2.0,5.0,96,0.00,,,0.00,,2013-04-19 07:02:00,
2013-04-19 03:12:00,69.0,68.0,29.96,South,182,2.0,5.0,96,0.00,,,0.00,,2013-04-19 07:12:00,
2013-04-19 03:21:00,69.0,68.0,29.95,South,187,2.0,5.0,96,0.00,,,0.00,,2013-04-19 07:21:00,
2013-04-19 03:32:00,69.0,68.0,29.95,South,173,3.0,5.0,96,0.00,,,0.00,,2013-04-19 07:32:00,
2013-04-19 03:42:00,69.0,68.0,29.95,South,173,3.0,5.0,96,0.00,,,0.00,,2013-04-19 07:42:00,
2013-04-19 03:52:00,69.0,67.0,29.95,SE,142,2.0,3.0,94,0.00,,,0.00,,2013-04-19 07:52:00,
2013-04-19 04:02:00,69.0,67.0,29.95,South,180,1.0,6.0,93,0.00,,,0.00,,2013-04-19 08:02:00,
2013-04-19 04:12:00,69.0,67.0,29.95,South,180,1.0,6.0,93,0.00,,,0.00,,2013-04-19 08:12:00,
2013-04-19 04:22:00,69.0,67.0,29.94,South,176,2.0,6.0,93,0.00,,,0.00,,2013-04-19 08:22:00,
2013-04-19 04:33:00,69.0,67.0,29.94,South,187,2.0,7.0,93,0.00,,,0.00,,2013-04-19 08:33:00,
2013-04-19 04:42:00,69.0,67.0,29.94,South,187,2.0,7.0,93,0.00,,,0.00,,2013-04-19 08:42:00,
2013-04-19 04:52:00,69.0,67.0,29.94,SSE,153,1.0,3.0,93,0.00,,,0.00,,2013-04-19 08:52:00,
2013-04-19 05:01:00,69.0,67.0,29.94,SSE,167,2.0,3.0,93,0.00,,,0.00,,2013-04-19 09:01:00,
2013-04-19 05:12:00,69.0,67.0,29.94,SSE,167,2.0,3.0,93,0.00,,,0.00,,2013-04-19 09:12:00,
2013-04-19 05:21:00,69.0,67.0,29.93,SSE,158,2.0,6.0,94,0.00,,,0.00,,2013-04-19 09:21:00,
2013-04-19 05:32:00,69.0,68.0,29.93,SSE,160,2.0,3.0,95,0.00,,,0.00,,2013-04-19 09:32:00,
2013-04-19 05:43:00,69.0,68.0,29.93,SSE,160,2.0,3.0,95,0.00,,,0.00,,2013-04-19 09:43:00,
2013-04-19 05:52:00,70.0,69.0,29.94,South,189,2.0,6.0,96,0.00,,,0.00,,2013-04-19 09:52:00,
2013-04-19 06:02:00,70.0,68.0,29.93,SSE,162,2.0,5.0,95,0.00,,,0.00,,2013-04-19 10:02:00,
2013-04-19 06:13:00,70.0,68.0,29.93,SSE,162,2.0,5.0,95,0.00,,,0.00,,2013-04-19 10:13:00,
2013-04-19 06:23:00,70.0,68.0,29.93,SSE,166,3.0,8.0,95,0.00,,,0.00,,2013-04-19 10:23:00,
2013-04-19 06:33:00,70.0,68.0,29.94,SSE,156,2.0,6.0,95,0.00,,,0.00,,2013-04-19 10:33:00,
2013-04-19 06:42:00,70.0,68.0,29.94,SSE,156,2.0,6.0,95,0.00,,,0.00,,2013-04-19 10:42:00,
2013-04-19 06:52:00,70.0,69.0,29.94,SSE,161,2.0,6.0,96,0.00,,,0.00,,2013-04-19 10:52:00,
2013-04-19 07:03:00,70.0,69.0,29.94,SSE,158,1.0,5.0,96,0.00,,,0.00,,2013-04-19 11:03:00,
2013-04-19 07:11:00,70.0,69.0,29.94,SSE,158,1.0,5.0,96,0.00,,,0.00,,2013-04-19 11:11:00,
2013-04-19 07:22:00,70.0,69.0,29.95,SSE,168,2.0,7.0,96,0.00,,,0.00,,2013-04-19 11:22:00,
2013-04-19 07:32:00,71.0,70.0,29.95,South,179,2.0,7.0,96,0.00,,,0.00,,2013-04-19 11:32:00,
2013-04-19 07:42:00,71.0,70.0,29.95,South,179,2.0,7.0,96,0.00,,,0.00,,2013-04-19 11:42:00,
2013-04-19 07:52:00,72.0,71.0,29.96,South,189,2.0,8.0,96,0.00,,,0.00,,2013-04-19 11:52:00,
2013-04-19 08:03:00,72.0,71.0,29.96,South,187,2.0,9.0,96,0.00,,,0.00,,2013-04-19 12:03:00,
2013-04-19 08:12:00,72.0,71.0,29.96,South,187,2.0,9.0,96,0.00,,,0.00,,2013-04-19 12:12:00,
2013-04-19 08:22:00,73.0,71.0,29.97,South,188,4.0,12.0,94,0.00,,,0.00,,2013-04-19 12:22:00,
2013-04-19 08:32:00,74.0,72.0,29.97,South,189,2.0,10.0,93,0.00,,,0.00,,2013-04-19 12:32:00,
2013-04-19 08:42:00,74.0,72.0,29.97,South,189,2.0,10.0,93,0.00,,,0.00,,2013-04-19 12:42:00,
2013-04-19 08:53:00,73.0,71.0,29.97,South,185,2.0,7.0,93,0.00,,,0.00,,2013-04-19 12:53:00,
2013-04-19 09:01:00,73.0,71.0,29.96,ESE,120,1.0,7.0,94,0.00,,,0.00,,2013-04-19 13:01:00,
2013-04-19 09:11:00,73.0,71.0,29.96,ESE,120,1.0,7.0,94,0.00,,,0.00,,2013-04-19 13:11:00,
2013-04-19 09:22:00,74.0,72.0,29.96,SSW,199,3.0,12.0,93,0.00,,,0.00,,2013-04-19 13:22:00,
2013-04-19 09:32:00,75.0,73.0,29.96,SSW,193,3.0,12.0,92,0.00,,,0.00,,2013-04-19 13:32:00,
2013-04-19 09:42:00,75.0,73.0,29.96,SSW,193,3.0,12.0,92,0.00,,,0.00,,2013-04-19 13:42:00,
2013-04-19 09:52:00,76.0,73.0,29.96,South,183,4.0,12.0,90,0.00,,,0.00,,2013-04-19 13:52:00,
2013-04-19 10:02:00,76.0,73.0,29.97,SSW,210,2.0,9.0,89,0.00,,,0.00,,2013-04-19 14:02:00,
2013-04-19 10:11:00,76.0,73.0,29.97,SSW,210,2.0,9.0,89,0.00,,,0.00,,2013-04-19 14:11:00,
2013-04-19 10:22:00,76.0,73.0,29.97,SW,218,3.0,8.0,89,0.00,,,0.00,,2013-04-19 14:22:00,
2013-04-19 10:32:00,76.0,72.0,29.96,SW,216,3.0,9.0,88,0.00,,,0.00,,2013-04-19 14:32:00,
2013-04-19 10:43:00,76.0,72.0,29.96,SW,216,3.0,9.0,88,0.00,,,0.00,,2013-04-19 14:43:00,
2013-04-19 10:52:00,78.0,72.0,29.96,SW,218,3.0,10.0,83,0.00,,,0.00,,2013-04-19 14:52:00,
2013-04-19 11:02:00,78.0,72.0,29.96,SSW,204,2.0,7.0,81,0.00,,,0.00,,2013-04-19 15:02:00,
2013-04-19 11:12:00,78.0,72.0,29.96,SSW,204,2.0,7.0,81,0.00,,,0.00,,2013-04-19 15:12:00,
2013-04-19 11:22:00,76.0,71.0,29.96,SSW,201,1.0,8.0,84,0.00,,,0.00,,2013-04-19 15:22:00,
2013-04-19 11:33:00,76.0,71.0,29.96,SW,221,2.0,5.0,84,0.00,,,0.00,,2013-04-19 15:33:00,
2013-04-19 11:43:00,76.0,71.0,29.96,SW,221,2.0,5.0,84,0.00,,,0.00,,2013-04-19 15:43:00,
2013-04-19 11:52:00,76.0,70.0,29.96,SW,225,2.0,8.0,83,0.00,,,0.00,,2013-04-19 15:52:00,
2013-04-19 12:03:00,76.0,70.0,29.95,South,187,2.0,6.0,82,0.00,,,0.00,,2013-04-19 16:03:00,
2013-04-19 12:13:00,76.0,70.0,29.95,South,187,2.0,6.0,82,0.00,,,0.00,,2013-04-19 16:13:00,
2013-04-19 12:23:00,76.0,70.0,29.95,SSW,211,2.0,7.0,82,0.00,,,0.00,,2013-04-19 16:23:00,
2013-04-19 12:32:00,75.0,69.0,29.95,SW,220,3.0,5.0,81,0.00,,,0.00,,2013-04-19 16:32:00,
2013-04-19 12:42:00,75.0,69.0,29.95,SW,220,3.0,5.0,81,0.00,,,0.00,,2013-04-19 16:42:00,
2013-04-19 12:53:00,75.0,69.0,29.95,SW,220,2.0,7.0,81,0.00,,,0.00,,2013-04-19 16:53:00,
2013-04-19 13:02:00,75.0,69.0,29.95,SW,220,2.0,5.0,82,0.00,,,0.00,,2013-04-19 17:02:00,
2013-04-19 13:12:00,75.0,69.0,29.95,SW,220,2.0,5.0,82,0.00,,,0.00,,2013-04-19 17:12:00,
2013-04-19 13:22:00,75.0,69.0,29.94,SSW,194,2.0,12.0,83,0.00,,,0.00,,2013-04-19 17:22:00,
2013-04-19 13:33:00,75.0,70.0,29.93,SSW,207,3.0,9.0,84,0.00,,,0.00,,2013-04-19 17:33:00,
2013-04-19 13:43:00,75.0,70.0,29.93,SSW,207,3.0,9.0,84,0.00,,,0.00,,2013-04-19 17:43:00,
2013-04-19 13:52:00,76.0,70.0,29.92,South,191,3.0,10.0,83,0.00,,,0.00,,2013-04-19 17:52:00,
2013-04-19 14:02:00,77.0,71.0,29.91,South,177,6.0,14.0,82,0.00,,,0.00,,2013-04-19 18:02:00,
2013-04-19 14:13:00,77.0,71.0,29.91,South,177,6.0,14.0,82,0.00,,,0.00,,2013-04-19 18:13:00,
2013-04-19 14:23:00,80.0,73.0,29.91,SW,219,3.0,14.0,80,0.00,,,0.00,,2013-04-19 18:23:00,
2013-04-19 14:33:00,81.0,73.0,29.91,SSW,206,5.0,12.0,78,0.00,,,0.00,,2013-04-19 18:33:00,
2013-04-19 14:43:00,81.0,73.0,29.91,SSW,206,5.0,12.0,78,0.00,,,0.00,,2013-04-19 18:43:00,
2013-04-19 14:52:00,80.0,74.0,29.90,SSW,193,2.0,16.0,81,0.00,,,0.00,,2013-04-19 18:52:00,
2013-04-19 15:02:00,82.0,74.0,29.90,SW,222,5.0,15.0,76,0.00,,,0.00,,2013-04-19 19:02:00,
2013-04-19 15:11:00,82.0,74.0,29.90,SW,222,5.0,15.0,76,0.00,,,0.00,,2013-04-19 19:11:00,
2013-04-19 15:21:00,82.0,74.0,29.90,SSW,212,6.0,18.0,76,0.00,,,0.00,,2013-04-19 19:21:00,
2013-04-19 15:32:00,81.0,74.0,29.88,SW,214,3.0,16.0,79,0.00,,,0.00,,2013-04-19 19:32:00,
2013-04-19 15:42:00,81.0,74.0,29.88,SW,214,3.0,16.0,79,0.00,,,0.00,,2013-04-19 19:42:00,
2013-04-19 15:52:00,81.0,73.0,29.88,WSW,255,3.0,12.0,78,0.00,,,0.00,,2013-04-19 19:52:00,
2013-04-19 16:02:00,81.0,73.0,29.88,South,188,3.0,14.0,78,0.00,,,0.00,,2013-04-19 20:02:00,
2013-04-19 16:11:00,81.0,73.0,29.88,South,188,3.0,14.0,78,0.00,,,0.00,,2013-04-19 20:11:00,
2013-04-19 16:22:00,80.0,73.0,29.87,WSW,247,5.0,16.0,79,0.00,,,0.00,,2013-04-19 20:22:00,
2013-04-19 16:32:00,79.0,72.0,29.86,SSW,195,5.0,13.0,80,0.00,,,0.00,,2013-04-19 20:32:00,
2013-04-19 16:42:00,79.0,72.0,29.86,SSW,195,5.0,13.0,80,0.00,,,0.00,,2013-04-19 20:42:00,
2013-04-19 16:52:00,80.0,73.0,29.86,SSW,196,5.0,18.0,79,0.00,,,0.00,,2013-04-19 20:52:00,
2013-04-19 17:01:00,79.0,73.0,29.85,SSW,197,6.0,18.0,81,0.00,,,0.00,,2013-04-19 21:01:00,
2013-04-19 17:11:00,79.0,73.0,29.85,SSW,197,6.0,18.0,81,0.00,,,0.00,,2013-04-19 21:11:00,
2013-04-19 17:21:00,78.0,72.0,29.86,South,175,5.0,16.0,83,0.00,,,0.00,,2013-04-19 21:21:00,
2013-04-19 17:32:00,77.0,72.0,29.86,SSE,158,3.0,17.0,84,0.00,,,0.00,,2013-04-19 21:32:00,
2013-04-19 17:43:00,77.0,72.0,29.86,SSE,158,3.0,17.0,84,0.00,,,0.00,,2013-04-19 21:43:00,
2013-04-19 17:53:00,77.0,72.0,29.85,SSW,213,6.0,16.0,85,0.00,,,0.00,,2013-04-19 21:53:00,
2013-04-19 18:02:00,76.0,71.0,29.84,SSE,153,5.0,12.0,85,0.00,,,0.00,,2013-04-19 22:02:00,
2013-04-19 18:12:00,76.0,71.0,29.84,SSE,153,5.0,12.0,85,0.00,,,0.00,,2013-04-19 22:12:00,
2013-04-19 18:23:00,76.0,71.0,29.85,SSW,195,2.0,16.0,85,0.00,,,0.00,,2013-04-19 22:23:00,
2013-04-19 18:33:00,76.0,71.0,29.85,South,184,4.0,14.0,85,0.00,,,0.00,,2013-04-19 22:33:00,
2013-04-19 18:42:00,76.0,71.0,29.85,South,184,4.0,14.0,85,0.00,,,0.00,,2013-04-19 22:42:00,
2013-04-19 18:52:00,75.0,71.0,29.86,SSW,196,3.0,12.0,86,0.00,,,0.00,,2013-04-19 22:52:00,
2013-04-19 19:03:00,75.0,71.0,29.86,SW,224,3.0,12.0,86,0.00,,,0.00,,2013-04-19 23:03:00,
2013-04-19 19:11:00,75.0,71.0,29.86,SW,224,3.0,12.0,86,0.00,,,0.00,,2013-04-19 23:11:00,
2013-04-19 19:22:00,75.0,71.0,29.86,SSW,212,3.0,12.0,87,0.00,,,0.00,,2013-04-19 23:22:00,
2013-04-19 19:32:00,75.0,71.0,29.86,SSE,167,4.0,15.0,88,0.00,,,0.00,,2013-04-19 23:32:00,
2013-04-19 19:42:00,75.0,71.0,29.86,SSE,167,4.0,15.0,88,0.00,,,0.00,,2013-04-19 23:42:00,
2013-04-19 19:53:00,74.0,71.0,29.89,West,270,2.0,10.0,89,0.00,,,0.00,,2013-04-19 23:53:00,
2013-04-19 20:02:00,72.0,69.0,29.88,SW,225,1.0,6.0,89,0.04,,,0.04,,2013-04-20 00:02:00,
2013-04-19 20:12:00,72.0,69.0,29.88,SW,225,1.0,6.0,89,0.04,,,0.04,,2013-04-20 00:12:00,
2013-04-19 20:22:00,69.0,67.0,29.88,SW,228,0.0,3.0,94,0.07,,,0.07,,2013-04-20 00:22:00,
2013-04-19 20:32:00,69.0,68.0,29.87,NW,308,1.0,3.0,95,0.09,,,0.09,,2013-04-20 00:32:00,
2013-04-19 20:42:00,69.0,68.0,29.87,NW,308,1.0,3.0,95,0.09,,,0.09,,2013-04-20 00:42:00,
2013-04-19 20:52:00,68.0,67.0,29.86,SW,230,1.0,5.0,97,0.13,,,0.13,,2013-04-20 00:52:00,
2013-04-19 21:01:00,68.0,67.0,29.87,SSW,205,1.0,3.0,97,0.11,,,0.15,,2013-04-20 01:01:00,
2013-04-19 21:11:00,68.0,67.0,29.87,SSW,205,1.0,3.0,97,0.11,,,0.15,,2013-04-20 01:11:00,
2013-04-19 21:21:00,68.0,67.0,29.89,WSW,241,1.0,2.0,98,0.13,,,0.20,,2013-04-20 01:21:00,
2013-04-19 21:32:00,68.0,67.0,29.88,WSW,242,0.0,1.0,98,0.13,,,0.22,,2013-04-20 01:32:00,
2013-04-19 21:42:00,68.0,67.0,29.88,WSW,242,0.0,1.0,98,0.13,,,0.22,,2013-04-20 01:42:00,
2013-04-19 21:52:00,68.0,67.0,29.87,West,261,1.0,2.0,98,0.12,,,0.25,,2013-04-20 01:52:00,
2013-04-19 22:02:00,68.0,67.0,29.89,SSW,202,1.0,2.0,98,0.12,,,0.27,,2013-04-20 02:02:00,
2013-04-19 22:11:00,68.0,67.0,29.89,SSW,202,1.0,2.0,98,0.12,,,0.27,,2013-04-20 02:11:00,
2013-04-19 22:22:00,68.0,67.0,29.89,SSE,167,1.0,3.0,98,0.10,,,0.30,,2013-04-20 02:22:00,
2013-04-19 22:32:00,68.0,67.0,29.90,South,181,2.0,6.0,98,0.10,,,0.32,,2013-04-20 02:32:00,
2013-04-19 22:42:00,68.0,67.0,29.90,South,181,2.0,6.0,98,0.10,,,0.32,,2013-04-20 02:42:00,
2013-04-19 22:52:00,69.0,69.0,29.90,SSW,195,0.0,3.0,99,0.09,,,0.34,,2013-04-20 02:52:00,
2013-04-19 23:01:00,69.0,69.0,29.90,South,188,1.0,5.0,99,0.09,,,0.36,,2013-04-20 03:01:00,
2013-04-19 23:11:00,69.0,69.0,29.90,South,188,1.0,5.0,99,0.09,,,0.36,,2013-04-20 03:11:00,
2013-04-19 23:21:00,69.0,69.0,29.89,SW,225,0.0,2.0,99,0.08,,,0.38,,2013-04-20 03:21:00,
2013-04-19 23:33:00,69.0,69.0,29.90,SW,225,0.0,1.0,99,0.08,,,0.39,,2013-04-20 03:33:00,
2013-04-19 23:43:00,69.0,69.0,29.90,SW,225,0.0,1.0,99,0.08,,,0.39,,2013-04-20 03:43:00,
2013-04-19 23:53:00,69.0,69.0,29.90,SW,225,0.0,1.0,99,0.07,,,0.41,,2013-04-20 03:53:00,